Time,TemperatureF,DewpointF,PressureIn,WindDirection,WindDirectionDegrees,WindSpeedMPH,WindSpeedGustMPH,Humidity,HourlyPrecipIn,Conditions,Clouds,dailyrainin,SoftwareType,DateUTC
2013-01-25 00:03:00,13.0,-5.0,29.40,East,97,1.0,2.0,44,0.00,,,0.00,,2013-01-25 05:03:00,
2013-01-25 00:12:00,13.0,-5.0,29.37,ESE,112,0.0,3.0,44,0.00,,,0.00,,2013-01-25 05:12:00,
2013-01-25 00:22:00,13.0,-5.0,29.37,ESE,112,0.0,3.0,44,0.00,,,0.00,,2013-01-25 05:22:00,
2013-01-25 00:32:00,14.0,-4.0,29.37,East,90,0.0,1.0,44,0.00,,,0.00,,2013-01-25 05:32:00,
2013-01-25 00:43:00,14.0,-4.0,29.37,East,90,0.0,1.0,44,0.00,,,0.00,,2013-01-25 05:43:00,
2013-01-25 00:52:00,14.0,-4.0,29.37,ESE,112,2.0,3.0,44,0.00,,,0.00,,2013-01-25 05:52:00,
2013-01-25 01:02:00,14.0,-2.0,29.34,ESE,111,2.0,3.0,48,0.00,,,0.00,,2013-01-25 06:02:00,
2013-01-25 01:11:00,14.0,-2.0,29.34,ESE,111,2.0,3.0,48,0.00,,,0.00,,2013-01-25 06:11:00,
2013-01-25 01:22:00,14.0,-2.0,29.35,SE,132,3.0,4.0,48,0.00,,,0.00,,2013-01-25 06:22:00,
2013-01-25 01:32:00,14.0,-2.0,29.35,ESE,112,3.0,6.0,47,0.00,,,0.00,,2013-01-25 06:32:00,
2013-01-25 01:42:00,14.0,-2.0,29.35,ESE,112,3.0,6.0,47,0.00,,,0.00,,2013-01-25 06:42:00,
2013-01-25 01:52:00,14.0,-2.0,29.31,ESE,123,2.0,3.0,48,0.00,,,0.00,,2013-01-25 06:52:00,
2013-01-25 02:02:00,14.0,-2.0,29.31,SSE,157,2.0,4.0,47,0.00,,,0.00,,2013-01-25 07:02:00,
2013-01-25 02:11:00,14.0,-2.0,29.31,SSE,157,2.0,4.0,47,0.00,,,0.00,,2013-01-25 07:11:00,
2013-01-25 02:22:00,14.0,-2.0,29.32,ESE,112,1.0,3.0,47,0.00,,,0.00,,2013-01-25 07:22:00,
2013-01-25 02:32:00,14.0,-2.0,29.31,East,97,2.0,5.0,47,0.00,,,0.00,,2013-01-25 07:32:00,
2013-01-25 02:42:00,14.0,-2.0,29.31,East,97,2.0,5.0,47,0.00,,,0.00,,2013-01-25 07:42:00,
2013-01-25 02:51:00,14.0,-2.0,29.31,SE,135,3.0,3.0,48,0.00,,,0.00,,2013-01-25 07:51:00,
2013-01-25 03:02:00,14.0,-2.0,29.32,SE,143,2.0,4.0,48,0.00,,,0.00,,2013-01-25 08:02:00,
2013-01-25 03:12:00,14.0,-2.0,29.32,ESE,108,2.0,4.0,48,0.00,,,0.00,,2013-01-25 08:12:00,
2013-01-25 03:21:00,14.0,-2.0,29.32,ESE,108,2.0,4.0,48,0.00,,,0.00,,2013-01-25 08:21:00,
2013-01-25 03:32:00,14.0,-2.0,29.28,ESE,109,3.0,4.0,47,0.00,,,0.00,,2013-01-25 08:32:00,
2013-01-25 03:42:00,14.0,-2.0,29.28,ESE,109,3.0,4.0,47,0.00,,,0.00,,2013-01-25 08:42:00,
2013-01-25 03:52:00,15.0,-1.0,29.32,SSE,152,2.0,3.0,48,0.00,,,0.00,,2013-01-25 08:52:00,
2013-01-25 04:02:00,15.0,-2.0,29.28,SE,139,2.0,4.0,47,0.00,,,0.00,,2013-01-25 09:02:00,
2013-01-25 04:11:00,15.0,-2.0,29.28,SE,139,2.0,4.0,47,0.00,,,0.00,,2013-01-25 09:11:00,
2013-01-25 04:21:00,15.0,-2.0,29.28,ESE,115,2.0,6.0,47,0.00,,,0.00,,2013-01-25 09:21:00,
2013-01-25 04:32:00,15.0,-2.0,29.28,ENE,69,1.0,3.0,47,0.00,,,0.00,,2013-01-25 09:32:00,
2013-01-25 04:42:00,15.0,-2.0,29.28,ENE,69,1.0,3.0,47,0.00,,,0.00,,2013-01-25 09:42:00,
2013-01-25 04:52:00,15.0,-2.0,29.28,SSW,193,3.0,4.0,47,0.00,,,0.00,,2013-01-25 09:52:00,
2013-01-25 05:02:00,15.0,-2.0,29.28,SSE,157,3.0,4.0,47,0.00,,,0.00,,2013-01-25 10:02:00,
2013-01-25 05:12:00,15.0,-2.0,29.28,SSE,157,3.0,4.0,47,0.00,,,0.00,,2013-01-25 10:12:00,
2013-01-25 05:21:00,15.0,-2.0,29.25,ESE,112,2.0,3.0,47,0.00,,,0.00,,2013-01-25 10:21:00,
2013-01-25 05:32:00,15.0,-2.0,29.25,ESE,112,2.0,4.0,47,0.00,,,0.00,,2013-01-25 10:32:00,
2013-01-25 05:42:00,15.0,-2.0,29.25,ESE,112,2.0,4.0,47,0.00,,,0.00,,2013-01-25 10:42:00,
2013-01-25 05:52:00,15.0,-2.0,29.25,ESE,112,3.0,6.0,47,0.00,,,0.00,,2013-01-25 10:52:00,
2013-01-25 06:02:00,15.0,-2.0,29.22,SSE,157,2.0,6.0,47,0.00,,,0.00,,2013-01-25 11:02:00,
2013-01-25 06:11:00,15.0,-2.0,29.22,SSE,157,2.0,6.0,47,0.00,,,0.00,,2013-01-25 11:11:00,
2013-01-25 06:22:00,15.0,-2.0,29.22,ESE,120,4.0,5.0,47,0.00,,,0.00,,2013-01-25 11:22:00,
2013-01-25 06:32:00,15.0,-2.0,29.19,East,90,1.0,5.0,47,0.00,,,0.00,,2013-01-25 11:32:00,
2013-01-25 06:42:00,15.0,-2.0,29.19,East,90,1.0,5.0,47,0.00,,,0.00,,2013-01-25 11:42:00,
2013-01-25 06:52:00,15.0,-2.0,29.19,SE,133,3.0,7.0,47,0.00,,,0.00,,2013-01-25 11:52:00,
2013-01-25 07:02:00,15.0,-2.0,29.16,ENE,67,2.0,4.0,47,0.00,,,0.00,,2013-01-25 12:02:00,
2013-01-25 07:12:00,15.0,-2.0,29.16,ENE,67,2.0,4.0,47,0.00,,,0.00,,2013-01-25 12:12:00,
2013-01-25 07:22:00,15.0,-2.0,29.16,ESE,112,5.0,6.0,47,0.00,,,0.00,,2013-01-25 12:22:00,
2013-01-25 07:32:00,15.0,-2.0,29.14,SSE,157,4.0,6.0,47,0.00,,,0.00,,2013-01-25 12:32:00,
2013-01-25 07:42:00,15.0,-2.0,29.14,SSE,157,4.0,6.0,47,0.00,,,0.00,,2013-01-25 12:42:00,
2013-01-25 07:53:00,15.0,-2.0,29.14,SSE,157,4.0,4.0,47,0.00,,,0.00,,2013-01-25 12:53:00,
2013-01-25 08:02:00,15.0,-2.0,29.13,East,90,0.0,3.0,47,0.00,,,0.00,,2013-01-25 13:02:00,
2013-01-25 08:12:00,15.0,-2.0,29.13,East,90,0.0,3.0,47,0.00,,,0.00,,2013-01-25 13:12:00,
2013-01-25 08:22:00,15.0,-2.0,29.13,SSE,157,3.0,3.0,46,0.00,,,0.00,,2013-01-25 13:22:00,
2013-01-25 08:33:00,15.0,-2.0,29.15,SSW,202,3.0,4.0,47,0.00,,,0.00,,2013-01-25 13:33:00,
2013-01-25 08:42:00,15.0,-2.0,29.15,SSW,202,3.0,4.0,47,0.00,,,0.00,,2013-01-25 13:42:00,
2013-01-25 08:52:00,16.0,-1.0,29.13,SSW,202,3.0,4.0,47,0.00,,,0.00,,2013-01-25 13:52:00,
2013-01-25 09:03:00,16.0,0.0,29.13,South,180,4.0,6.0,49,0.00,,,0.00,,2013-01-25 14:03:00,
2013-01-25 09:12:00,16.0,0.0,29.13,South,180,4.0,6.0,49,0.00,,,0.00,,2013-01-25 14:12:00,
2013-01-25 09:23:00,16.0,1.0,29.13,SSE,157,3.0,9.0,51,0.00,,,0.00,,2013-01-25 14:23:00,
2013-01-25 09:33:00,16.0,2.0,29.13,SE,127,2.0,5.0,52,0.00,,,0.00,,2013-01-25 14:33:00,
2013-01-25 09:42:00,16.0,2.0,29.13,SE,127,2.0,5.0,52,0.00,,,0.00,,2013-01-25 14:42:00,
2013-01-25 09:53:00,15.0,1.0,29.13,ESE,120,4.0,5.0,54,0.00,,,0.00,,2013-01-25 14:53:00,
2013-01-25 10:03:00,15.0,4.0,29.10,SSE,159,3.0,4.0,61,0.00,,,0.00,,2013-01-25 15:03:00,
2013-01-25 10:12:00,15.0,4.0,29.10,SSE,159,3.0,4.0,61,0.00,,,0.00,,2013-01-25 15:12:00,
2013-01-25 10:22:00,15.0,5.0,29.10,South,181,3.0,4.0,63,0.00,,,0.00,,2013-01-25 15:22:00,
2013-01-25 10:32:00,15.0,6.0,29.10,ESE,112,4.0,7.0,67,0.00,,,0.00,,2013-01-25 15:32:00,
2013-01-25 10:42:00,15.0,6.0,29.10,ESE,112,4.0,7.0,67,0.00,,,0.00,,2013-01-25 15:42:00,
2013-01-25 10:52:00,16.0,7.0,29.07,ESE,112,2.0,3.0,66,0.00,,,0.00,,2013-01-25 15:52:00,
2013-01-25 11:03:00,16.0,7.0,29.08,East,93,3.0,4.0,66,0.00,,,0.00,,2013-01-25 16:03:00,
2013-01-25 11:12:00,16.0,7.0,29.08,East,93,3.0,4.0,66,0.00,,,0.00,,2013-01-25 16:12:00,
2013-01-25 11:23:00,17.0,7.0,29.08,SE,127,1.0,3.0,65,0.00,,,0.00,,2013-01-25 16:23:00,
2013-01-25 11:33:00,17.0,8.0,29.08,SSE,157,3.0,3.0,66,0.00,,,0.00,,2013-01-25 16:33:00,
2013-01-25 11:43:00,17.0,8.0,29.08,SSE,157,3.0,3.0,66,0.00,,,0.00,,2013-01-25 16:43:00,
2013-01-25 11:53:00,17.0,8.0,29.08,SSE,157,3.0,3.0,66,0.00,,,0.00,,2013-01-25 16:53:00,
2013-01-25 12:03:00,18.0,8.0,29.08,ESE,112,2.0,6.0,64,0.00,,,0.00,,2013-01-25 17:03:00,
2013-01-25 12:12:00,18.0,8.0,29.08,ESE,112,2.0,6.0,64,0.00,,,0.00,,2013-01-25 17:12:00,
2013-01-25 12:22:00,19.0,8.0,29.05,East,96,3.0,4.0,62,0.00,,,0.00,,2013-01-25 17:22:00,
2013-01-25 12:33:00,21.0,9.0,29.05,ENE,67,3.0,4.0,58,0.00,,,0.00,,2013-01-25 17:33:00,
2013-01-25 12:43:00,21.0,9.0,29.05,ENE,67,3.0,4.0,58,0.00,,,0.00,,2013-01-25 17:43:00,
2013-01-25 12:52:00,20.0,8.0,29.02,SE,143,2.0,4.0,58,0.00,,,0.00,,2013-01-25 17:52:00,
2013-01-25 13:03:00,19.0,7.0,28.99,ESE,103,1.0,3.0,59,0.00,,,0.00,,2013-01-25 18:03:00,
2013-01-25 13:12:00,19.0,7.0,28.99,ESE,103,1.0,3.0,59,0.00,,,0.00,,2013-01-25 18:12:00,
2013-01-25 13:23:00,20.0,8.0,29.02,ENE,67,3.0,3.0,59,0.00,,,0.00,,2013-01-25 18:23:00,
2013-01-25 13:33:00,20.0,8.0,28.99,ENE,67,3.0,3.0,59,0.00,,,0.00,,2013-01-25 18:33:00,
2013-01-25 13:43:00,20.0,8.0,28.99,ENE,67,3.0,3.0,59,0.00,,,0.00,,2013-01-25 18:43:00,
2013-01-25 13:52:00,20.0,8.0,28.99,ENE,67,3.0,3.0,59,0.00,,,0.00,,2013-01-25 18:52:00,
2013-01-25 14:03:00,20.0,8.0,28.99,ENE,67,3.0,3.0,59,0.00,,,0.00,,2013-01-25 19:03:00,
2013-01-25 14:12:00,20.0,8.0,28.99,ENE,67,3.0,3.0,59,0.00,,,0.00,,2013-01-25 19:12:00,
2013-01-25 14:22:00,20.0,8.0,28.99,ENE,67,3.0,3.0,59,0.00,,,0.00,,2013-01-25 19:22:00,
2013-01-25 14:33:00,20.0,8.0,28.96,ENE,67,3.0,3.0,59,0.00,,,0.00,,2013-01-25 19:33:00,
2013-01-25 14:42:00,20.0,8.0,28.96,ENE,67,3.0,3.0,59,0.00,,,0.00,,2013-01-25 19:42:00,
2013-01-25 14:53:00,20.0,8.0,28.96,ENE,67,3.0,3.0,59,0.00,,,0.00,,2013-01-25 19:53:00,
2013-01-25 15:03:00,22.0,7.0,28.96,East,90,3.0,3.0,52,0.00,,,0.00,,2013-01-25 20:03:00,
2013-01-25 15:12:00,22.0,7.0,28.96,East,90,3.0,3.0,52,0.00,,,0.00,,2013-01-25 20:12:00,
2013-01-25 15:23:00,25.0,8.0,28.97,SSE,153,2.0,3.0,48,0.00,,,0.00,,2013-01-25 20:23:00,
2013-01-25 15:32:00,26.0,8.0,28.94,South,170,3.0,3.0,46,0.00,,,0.00,,2013-01-25 20:32:00,
2013-01-25 15:42:00,26.0,8.0,28.94,South,170,3.0,3.0,46,0.00,,,0.00,,2013-01-25 20:42:00,
2013-01-25 15:53:00,26.0,8.0,28.94,SSE,164,2.0,3.0,46,0.00,,,0.00,,2013-01-25 20:53:00,
2013-01-25 16:02:00,25.0,7.0,28.94,ESE,112,1.0,4.0,46,0.00,,,0.00,,2013-01-25 21:02:00,
2013-01-25 16:12:00,25.0,7.0,28.94,ESE,112,1.0,4.0,46,0.00,,,0.00,,2013-01-25 21:12:00,
2013-01-25 16:23:00,24.0,7.0,28.94,South,180,2.0,3.0,48,0.00,,,0.00,,2013-01-25 21:23:00,
2013-01-25 16:33:00,24.0,7.0,28.97,South,180,2.0,2.0,48,0.00,,,0.00,,2013-01-25 21:33:00,
2013-01-25 16:42:00,24.0,7.0,28.97,South,180,2.0,2.0,48,0.00,,,0.00,,2013-01-25 21:42:00,
2013-01-25 16:52:00,24.0,7.0,28.94,SSE,157,3.0,3.0,48,0.00,,,0.00,,2013-01-25 21:52:00,
2013-01-25 17:03:00,24.0,7.0,28.94,SSW,202,2.0,3.0,48,0.00,,,0.00,,2013-01-25 22:03:00,
2013-01-25 17:12:00,24.0,7.0,28.94,SSW,202,2.0,3.0,48,0.00,,,0.00,,2013-01-25 22:12:00,
2013-01-25 17:22:00,24.0,7.0,28.94,South,190,2.0,3.0,48,0.00,,,0.00,,2013-01-25 22:22:00,
2013-01-25 17:33:00,24.0,7.0,28.94,SE,135,1.0,3.0,48,0.00,,,0.00,,2013-01-25 22:33:00,
2013-01-25 17:42:00,24.0,7.0,28.94,SE,135,1.0,3.0,48,0.00,,,0.00,,2013-01-25 22:42:00,
2013-01-25 17:53:00,23.0,10.0,28.94,SSE,156,2.0,3.0,57,0.00,,,0.00,,2013-01-25 22:53:00,
2013-01-25 18:02:00,19.0,6.0,28.93,ESE,112,0.0,2.0,57,0.00,,,0.00,,2013-01-25 23:02:00,
2013-01-25 18:12:00,19.0,6.0,28.93,ESE,112,0.0,2.0,57,0.00,,,0.00,,2013-01-25 23:12:00,
2013-01-25 18:22:00,19.0,7.0,28.96,ESE,112,0.0,2.0,58,0.00,,,0.00,,2013-01-25 23:22:00,
2013-01-25 18:32:00,19.0,7.0,28.96,East,90,0.0,0.0,59,0.00,,,0.00,,2013-01-25 23:32:00,
2013-01-25 18:42:00,19.0,7.0,28.96,East,90,0.0,0.0,59,0.00,,,0.00,,2013-01-25 23:42:00,
2013-01-25 18:52:00,19.0,7.0,28.96,West,270,0.0,0.0,59,0.00,,,0.00,,2013-01-25 23:52:00,
2013-01-25 19:02:00,19.0,7.0,28.96,SSE,157,0.0,2.0,60,0.00,,,0.00,,2013-01-26 00:02:00,
2013-01-25 19:11:00,19.0,7.0,28.96,SSE,157,0.0,2.0,60,0.00,,,0.00,,2013-01-26 00:11:00,
2013-01-25 19:22:00,19.0,7.0,28.93,SSE,157,0.0,2.0,60,0.00,,,0.00,,2013-01-26 00:22:00,
2013-01-25 19:32:00,19.0,8.0,28.93,SSE,157,1.0,1.0,61,0.00,,,0.00,,2013-01-26 00:32:00,
2013-01-25 19:42:00,19.0,8.0,28.93,SSE,157,1.0,1.0,61,0.00,,,0.00,,2013-01-26 00:42:00,
2013-01-25 19:53:00,19.0,8.0,28.93,SSE,157,0.0,1.0,61,0.00,,,0.00,,2013-01-26 00:53:00,
2013-01-25 20:02:00,19.0,9.0,28.96,SW,225,2.0,3.0,63,0.00,,,0.00,,2013-01-26 01:02:00,
2013-01-25 20:12:00,19.0,9.0,28.96,SW,225,2.0,3.0,63,0.00,,,0.00,,2013-01-26 01:12:00,
2013-01-25 20:22:00,19.0,9.0,28.96,SSW,197,2.0,4.0,63,0.00,,,0.00,,2013-01-26 01:22:00,
2013-01-25 20:32:00,20.0,9.0,28.96,SSE,157,0.0,1.0,63,0.00,,,0.00,,2013-01-26 01:32:00,
2013-01-25 20:42:00,20.0,9.0,28.96,SSE,157,0.0,1.0,63,0.00,,,0.00,,2013-01-26 01:42:00,
2013-01-25 20:52:00,20.0,10.0,28.96,WSW,247,0.0,3.0,64,0.00,,,0.00,,2013-01-26 01:52:00,
2013-01-25 21:02:00,20.0,10.0,28.96,SSW,202,2.0,2.0,64,0.00,,,0.00,,2013-01-26 02:02:00,
2013-01-25 21:11:00,20.0,10.0,28.96,SSW,202,2.0,2.0,64,0.00,,,0.00,,2013-01-26 02:11:00,
2013-01-25 21:22:00,20.0,10.0,28.96,SSE,157,3.0,3.0,65,0.00,,,0.00,,2013-01-26 02:22:00,
2013-01-25 21:32:00,20.0,10.0,28.96,SSW,208,2.0,3.0,65,0.00,,,0.00,,2013-01-26 02:32:00,
2013-01-25 21:42:00,20.0,10.0,28.96,SSW,208,2.0,3.0,65,0.00,,,0.00,,2013-01-26 02:42:00,
2013-01-25 21:52:00,20.0,11.0,28.96,SSE,157,2.0,3.0,66,0.00,,,0.00,,2013-01-26 02:52:00,
2013-01-25 22:02:00,20.0,11.0,28.99,NNW,337,1.0,2.0,66,0.00,,,0.00,,2013-01-26 03:02:00,
2013-01-25 22:12:00,20.0,11.0,28.99,NNW,337,1.0,2.0,66,0.00,,,0.00,,2013-01-26 03:12:00,
2013-01-25 22:22:00,20.0,11.0,28.99,NNW,329,1.0,2.0,67,0.00,,,0.00,,2013-01-26 03:22:00,
2013-01-25 22:32:00,20.0,11.0,28.99,West,270,1.0,2.0,67,0.00,,,0.00,,2013-01-26 03:32:00,
2013-01-25 22:43:00,20.0,11.0,28.99,West,270,1.0,2.0,67,0.00,,,0.00,,2013-01-26 03:43:00,
2013-01-25 22:52:00,20.0,12.0,28.99,SW,216,2.0,3.0,70,0.00,,,0.00,,2013-01-26 03:52:00,
2013-01-25 23:02:00,20.0,12.0,28.99,WSW,247,3.0,3.0,72,0.00,,,0.00,,2013-01-26 04:02:00,
2013-01-25 23:12:00,20.0,12.0,28.99,WSW,247,3.0,3.0,72,0.00,,,0.00,,2013-01-26 04:12:00,
2013-01-25 23:21:00,20.0,12.0,28.99,WNW,290,2.0,3.0,72,0.00,,,0.00,,2013-01-26 04:21:00,
2013-01-25 23:32:00,20.0,13.0,28.99,West,270,2.0,3.0,74,0.00,,,0.00,,2013-01-26 04:32:00,
2013-01-25 23:42:00,20.0,13.0,28.99,West,270,2.0,3.0,74,0.00,,,0.00,,2013-01-26 04:42:00,
2013-01-25 23:52:00,20.0,13.0,28.99,WSW,247,2.0,6.0,74,0.00,,,0.00,,2013-01-26 04:52:00,